www.pogodaiklimat.ru

Погода и климат >> Архив погоды >> Россия >> Приморский край >> Астраханка


ПОГОДА в Астраханке

  • Прогноз погоды в Астраханке
  • Монитор погоды в Астраханке

АРХИВ ПОГОДЫ в Астраханке

Время (UTC), дата Ветер
(напр.,м/с)
 
Видим.   Явления Облачность Т
(С)
Тd
(С)
f
(%)
Тe
(С)
Тes
(С)
Комфортность P
(гПа)
Po
(гПа)
Тmin
(С)
Tmax
(С)
R
(мм)
R24
(мм)
S
(см)
00 13.06 Ю 6-11
{13}
20 км 9/9 200 м
[St]
+15.0 +13.2 89 +13 +14 1006.5 997.3
03 13.06 Ю 8-14
{14}
20 км 9/8 300 м
[St Ac As Ci fib]
+17.9 +13.4 75 +17 +17 1004.8 995.7
06 13.06 Ю 6-11
{14}
20 км 8/5 1000 м
[Cb cap Ac trans Ci fib]
+18.4 +13.6 74 +18 +20 1003.4 994.3
09 13.06 Ю 6-13
{16}
20 км 10/8 300 м
[St Ci fib]
+16.1 +12.9 81 +15 +15 1002.6 993.5 +19.7
12 13.06 ЮЗ 5
{14}
20 км 10/8 600 м
[Cb cap Ac und]
+15.2 +12.7 85 +14 +14 1003.5 994.4
15 13.06 ЮЗ 5
{12}
20 км 10/10 600 м
[Cb cap]
+14.9 +13.7 93 +13 +13 1003.2 994.0
18 13.06 ЮЗ 4
{12}
20 км 10/10 600 м
[Cb cap]
+14.6 +13.8 95 +13 +13 1003.7 994.5
21 13.06 ЮЗ 4 20 км слаб. ливневой дождь 10/8 300 м
[Cb cap Ac As]
+14.4 +14.0 97 +13 +13 1003.9 994.7 +14.3 0.3
00 14.06 ЮЗ 5
{10}
20 км {ливн. осадки} 10/8 600 м
[St Ac As]
+16.4 +15.3 93 +15 +16 1004.3 995.2
03 14.06 Ю 5 20 км 10/4 600 м
[Cu med, cong Ac trans Ci fib]
+20.1 +15.8 76 +23 +26 комфорт 1004.0 995.0
06 14.06 Ю 4 20 км 10/3 600 м
[Cu hum Ac trans Ci fib]
+21.9 +15.0 65 +25 +28 комфорт 1003.0 994.1
09 14.06 С 7
{11}
20 км 10/8 600 м
[Cb cap Ac As]
+17.0 +15.0 88 +16 +16 1004.5 995.4 +22.7 0.0
12 14.06 С 8 20 км 10/10 300 м
[St]
+17.5 +16.4 93 +16 +16 1005.8 996.7
15 14.06 С 7-11
{13}
2000 м ливневой дождь 10/10 300 м
[Cb cap]
+14.9 +14.5 97 +13 +13 1006.1 996.9
18 14.06 С 11-14
{14}
2000 м ливневой дождь 10/10 300 м
[Cb cap]
+14.6 +13.8 95 +12 +12 1005.6 996.4
21 14.06 С 14-16
{16}
10 км слаб. ливневой дождь 10/10 200 м
[Cb cap]
+13.3 +12.2 93 +9 +9 1006.0 996.7 +13.2 23
00 15.06 С 11-15
{17}
10 км слаб. ливневой дождь 10/10 200 м
[Cb cap]
+12.3 +11.7 96 +8 +8 1006.9 997.6 +12.1
03 15.06 С 11-14
{15}
2000 м ливневой дождь 10/10 200 м
[Cb cap]
+12.1 +11.8 98 +8 +8 1007.4 998.1
06 15.06 С 6-11
{16}
10 км слаб. ливневой дождь 10/10 200 м
[Cb cap]
+12.5 +12.0 97 +10 +10 1007.0 997.7
09 15.06 С 14-16
{18}
10 км слаб. ливневой дождь 10/10 200 м
[Cb cap]
+14.7 +13.3 91 +12 +12 1007.0 997.8 +14.7 21
12 15.06 С 13-16
{18}
20 км в посл. час ливневой дождь 10/10 300 м
[Cb cap]
+16.0 +12.4 79 +14 +14 1007.6 998.4
15 15.06 СЗ 6
{16}
10 км слаб. ливневой дождь 10/10 300 м
[Cb cap]
+14.1 +12.9 92 +12 +12 1007.9 998.7
18 15.06 СВ 12-14
{14}
20 км {ливн. осадки} 10/10 300 м
[Cb cap]
+14.5 +11.0 80 +12 +12 1007.6 998.4
21 15.06 С 5
{15}
50 км 10/10 200 м
[St]
+12.6 +9.2 80 +10 +10 1008.5 999.2 +12.2 6
00 16.06 СЗ 6-11
{12}
50 км 10/10 300 м
[St]
+12.2 +8.8 80 +10 +10 1008.9 999.6 +11.3
03 16.06 С 10-13
{13}
50 км 8/6 600 м
[Cu Sc Ac trans Ci fib]
+14.8 +9.7 71 +12 +13 1008.6 999.3
06 16.06 СВ 8
{13}
50 км 8/4 600 м
[Cu hum Ci fib]
+17.2 +11.1 67 +16 +17 1007.5 998.4
09 16.06 С 5
{12}
50 км 8/0
[Ci fib]
+18.3 +8.0 51 +18 +19 1007.4 998.3 +18.4
12 16.06 СЗ 2 50 км 3/0
[Ci fib]
+15.1 +4.0 47 +15 +15 1008.7 999.4
15 16.06 З 3 50 км 3/0
[Ci fib]
+12.3 +4.9 61 +11 +11 1009.0 999.6
18 16.06 З 4 50 км 3/0
[Ci fib]
+12.2 +4.8 61 +10 +10 1009.6 1000.3
21 16.06 З 4 50 км 3/0
[Ci fib]
+12.6 +5.2 61 +11 +12 1009.6 1000.3 +11.2
00 17.06 СЗ 3 50 км 4/0
[Ci fib]
+18.0 +7.8 51 +18 +27 1010.4 1001.2
03 17.06 ЮВ 2 50 км 6/0
[Ci]
+19.7 +4.3 36 +21 +38 комфорт 1009.4 1000.3
06 17.06 В 4 50 км 10/3 600 м
[Cu med, cong Ac und]
+19.8 +10.1 54 +21 +23 комфорт 1008.4 999.4
09 17.06 СЗ 1 50 км 10/4 600 м
[Cb cap Ac und Ci fib]
+18.1 +9.4 57 +19 +20 1008.8 999.7 +22.2
12 17.06 СВ 1 20 км 10/8 600 м
[Cb cap Ac und]
+18.1 +11.1 64 +19 +19 1009.0 999.9
15 17.06 В 2 10 км слаб. ливневой дождь 10/10 300 м
[Cb cap]
+15.4 +11.5 78 +15 +15 1008.9 999.6
18 17.06 СЗ 2 10 км слаб. ливневой дождь 10/10 300 м
[Cb cap]
+13.3 +12.5 95 +12 +12 1009.3 1000.1
21 17.06 З 3 20 км {ливн. осадки} 10/10 600 м
[Cb cap]
+13.5 +12.5 94 +12 +12 1008.4 999.2 +13.1 4
00 18.06 Ю 3 20 км {ливн. осадки} 8/4 200 м
[Sc diur, vesp Ci fib]
+16.2 +12.6 79 +16 +21 1007.3 998.2
03 18.06 В 2 20 км 9/9 200 м
[Cu Sc]
+18.7 +14.0 74 +20 +22 1005.8 996.7
06 18.06 СВ 5 20 км в посл. час ливневой дождь 8/8 600 м
[Cb cap]
+17.4 +14.8 85 +17 +18 1005.1 996.0
09 18.06 С 6 20 км 1/1 600 м
[Sc diur, vesp]
+18.0 +13.8 76 +17 +18 1004.8 995.7 +18.8 0.6
12 18.06 СЗ 1 20 км 8/8 600 м
[Cb cap]
+16.9 +14.2 84 +18 +18 1005.8 996.7
15 18.06 штиль 0 20 км 6/6 600 м
[Sc]
+15.2 +13.2 88 +15 +15 1005.9 996.7
18 18.06 ЮЗ 2 10 км 3/0
[Ci fib]
+12.7 +12.3 97 +12 +12 1005.2 996.0
21 18.06 ЮЗ 3 500 м туман 9/9 200 м
[St]
+11.0 +10.8 99 +9 +9 1005.1 995.8 +10.2
00 19.06 Ю 4 10 км {туман} 6/3 300 м
[St Ci fib]
+17.4 +15.3 87 +17 +22 1004.4 995.3
03 19.06 Ю 3 20 км 8/0
[Ac cast Ci fib]
+22.0 +14.2 61 +25 +36 комфорт 1002.9 994.0
06 19.06 Ю 2 20 км 9/6 600 м
[Cb cap Ac cuf Ci fib]
+24.0 +13.5 52 +26 +29 жарко 1001.3 992.4
09 19.06 СЗ 3 10 км гроза, ливневой дождь 9/8 600 м
[Cb cap Ac cuf Ci fib]
+17.8 +15.2 85 +18 +18 1000.8 991.8 +24.0 0.6
12 19.06 Ю 2 20 км {гроза, ливн. осадки} 9/9 600 м
[Cb cap]
+17.9 +15.3 85 +18 +18 1001.0 992.0
15 19.06 Ю 2 20 км 8/3 600 м
[Cb cap Ac cuf Ci fib]
+14.7 +13.8 94 +14 +14 1001.3 992.2

 

Местоположение метеостанции Астраханка (Приморский край, Россия): широта 44.72 долгота 132.00 высота над уровнем моря 78 м.

В архиве по умолчанию представлена погода в Астраханке за последнюю неделю. Архивные данные за месяц целиком и за предыдущие месяцы, начиная с января 2011 года, Вы можете получить, выбрав интересующий диапазон дат из раскрывающегося списка и нажав кнопку "Ввод!".


*Определитесь, кто Вы:
робот инопланетянин человек

Внимание! Время в таблицах - всемирное. Для получения местного времени необходимо прибавить поправку, которая равна 10 ч.

Смотрите также архив погоды в соседних городах и на ближайших метеорологических станциях:

Погода в Хороле (Приморский край, Россия) (32 км)
Погода в Турьем Роге (Приморский край, Россия) (55 км)
Погода в Спасск-Дальнем (Приморский край, Россия) (64 км)
Погода в Пограничном (Приморский край, Россия) (66 км)
Погода в Суйфэньхэ (Хэйлунцзян, Китай) (77 км)
Погода в Свиягино (Приморский край, Россия) (79 км)
Погода в Тимирязевском (Приморский край, Россия) (94 км)
Погода в Полтавке (Приморский край, Россия) (95 км)
Погода в Цзиси (Хэйлунцзян, Китай) (104 км)
Погода в Анучино (Приморский край, Россия) (115 км)

Пояснения к столбцам:

Ветер - указаны скорость ветра в м/с - средняя за 10 мин, порывы в срок и между сроками (в фигурных скобках) и направление, откуда дует ветер: С - северный, СВ - северо-восточный, В - восточный, ЮВ - юго-восточный, Ю - южный, ЮЗ - юго-западный, З - западный, СЗ - северо-западный.
Видимость - горизонтальная дальность видимости в метрах или километрах. При видимости от 1 до 10 км при отсутствии осадков обычно наблюдается дымка, при ухудшении видимости до 1 км и менее - туман. В сухую погоду видимость может ухудшаться дымом, пылью или мглою.
Явления - указаны атмосферные явления, наблюдавшиеся в срок или в последний час перед сроком; фигурными скобками обозначены явления, наблюдавшиеся между сроками (за 1-3 часа до срока); квадратными скобками обозначены град или гололедные отложения с указанием их диаметра в мм.
Облачность - указаны через наклонную черту общая и нижняя облачность в баллах и высота нижней границы облаков в метрах; квадратными скобками обозначены формы облаков: Ci - перистые, Cs - перисто-слоистые, Cc - перисто-кучевые, Ac - высококучевые, As - высокослоистые, Sc - слоисто-кучевые, Ns - слоисто-дождевые, Cu - кучевые, Cb - кучево-дождевые. Подробнее классификацию облаков см. в Атласе облаков (PDF).
T - Температура воздуха - температура, измеренная на высоте 2 м над землей.
Td - Температура точки росы - температура, при понижении до которой содержащийся в воздухе водяной пар достигнет насыщения.
f - Относительная влажность воздуха - влажноcть воздуха, измеренная на высоте 2 м над землей.
Te - Эффективная температура - температура, которую ощущает одетый по сезону человек в тени. Характеристика душности погоды. При расчете учитывается влияние влажности воздуха и скорости ветра на теплоощущения человека.
Tes - Эффективная температура на солнце - температура, которую ощущает человек, с поправкой на солнечный нагрев. Характеристика знойности погоды. Зависит от высоты солнца над горизонтом, облачности и скорости ветра. Ночью, в пасмурную погоду, а также при ветре 12 м/с и более поправка равна нулю.
P - Атмосферное давление - приведенное к уровню моря атмосферное давление.
Po - Атмосферное давление - измеренное на уровне метеостанции атмосферное давление.
Tmin - Минимальная температура - минимум температуры воздуха на высоте 2 м над землей.
Tmax - Максимальная температура - максимум температуры воздуха на высоте 2 м над землей.
R - Количество осадков - Количество выпавших осадков за период времени, мм. При наведении курсора мыши на число - период времени, за который выпало указанное количество осадков.
R24 - Количество осадков - Количество выпавших осадков за 24 часа, мм.
S - Снежный покров - Высота снежного покрова, см. При наведении курсора мыши на число - состояние снежного покрова и степень покрытия местности в баллах.